Penn Yan, NY

2:32 PM EST on February 19, 2017 (GMT -0500)
Penn Yan

Weather History for KPEO - November, 2012

Change the Weather History Date:

Friday, November 30, 2012

  Actual Average (KITH) Record (KITH)
Temperature  
Mean Temperature 31 °F -  
Max Temperature 36 °F 39 °F 66 °F (1998)
Min Temperature 26 °F 27 °F -4 °F (1976)
Degree Days  
Heating Degree Days 34    
Moisture  
Dew Point 23 °F    
Average Humidity 83    
Maximum Humidity 100    
Minimum Humidity 59    
Precipitation  
Precipitation 0.03 in - - ()
Sea Level Pressure  
Sea Level Pressure 30.37 in    
Wind  
Wind Speed 3 mph (NNE)    
Max Wind Speed 8 mph    
Max Gust Speed -    
Visibility 5 miles    
Events Fog , Snow    
Averages and records for this station are not official NWS values.
T = Trace of Precipitation, MM = Missing Value Source: NWS Daily Summary

Daily Weather History Graph

Daily Weather History Graph

Search for Another Location

Airport or City:

Trip Planner

Search our weather history database for the weather conditions in past years. The results will help you decide how hot, cold, wet, or windy it might be!

Date:

Astronomy

Nov. 30, 2012 Rise Set
Actual Time 7:18 AM EST 4:35 PM EST
Civil Twilight 6:46 AM EST 5:07 PM EST
Nautical Twilight 6:11 AM EST 5:42 PM EST
Astronomical Twilight 5:37 AM EST 6:16 PM EST
Moon 6:29 PM EST (11/30) 8:48 AM EST (11/30)
Length of Visible Light 10h 20m
Length of Day
9h 17m
Waning Gibbous, 96% of the Moon is Illuminated
Nov 30
Waning Gibbous
Dec 6
Last Quarter
Dec 13
New
Dec 20
First Quarter
Dec 28
Full

Hourly Weather History & Observations

Time (EST) Temp. Windchill Dew Point Humidity Pressure Visibility Wind Dir Wind Speed Gust Speed Precip Events Conditions
12:53 AM 36.0 °F 32.1 °F 23.0 °F 59% 30.28 in 10.0 mi SSW 4.6 mph - N/A   Overcast
1:22 AM 35.6 °F 30.7 °F 30.2 °F 81% 30.27 in 10.0 mi Variable 5.8 mph - N/A   Overcast
1:31 AM 33.8 °F 29.6 °F 30.2 °F 87% 30.28 in 9.0 mi NNE 4.6 mph - N/A   Overcast
1:53 AM 32.0 °F 24.8 °F 28.9 °F 88% 30.32 in 10.0 mi North 8.1 mph - N/A   Overcast
2:53 AM 30.0 °F 25.2 °F 26.1 °F 85% 30.34 in 10.0 mi Variable 4.6 mph - N/A   Overcast
3:53 AM 28.9 °F 25.2 °F 25.0 °F 85% 30.35 in 10.0 mi North 3.5 mph - N/A   Overcast
4:53 AM 28.0 °F 24.2 °F 24.1 °F 85% 30.37 in 10.0 mi Variable 3.5 mph - N/A   Overcast
5:53 AM 27.0 °F 21.6 °F 23.0 °F 85% 30.38 in 10.0 mi North 4.6 mph - N/A   Overcast
6:02 AM 26.6 °F 21.2 °F 23.0 °F 86% 30.35 in 10.0 mi Variable 4.6 mph - N/A   Overcast
6:53 AM 28.0 °F 22.8 °F 21.9 °F 78% 30.40 in 10.0 mi NNW 4.6 mph - N/A   Overcast
7:07 AM 26.6 °F 22.6 °F 21.2 °F 80% 30.37 in 10.0 mi NNW 3.5 mph - N/A   Overcast
7:43 AM 26.6 °F 22.6 °F 19.4 °F 74% 30.38 in 10.0 mi Variable 3.5 mph - N/A   Overcast
7:53 AM 27.0 °F 23.0 °F 19.9 °F 75% 30.42 in 10.0 mi Variable 3.5 mph - N/A   Overcast
8:53 AM 27.0 °F 21.6 °F 18.0 °F 69% 30.42 in 10.0 mi North 4.6 mph - N/A   Overcast
9:53 AM 28.0 °F 22.8 °F 18.0 °F 66% 30.43 in 10.0 mi Variable 4.6 mph - 0.00 in Snow Light Snow
10:07 AM 26.6 °F 21.2 °F 17.6 °F 69% 30.40 in 9.0 mi North 4.6 mph - 0.00 in Snow Light Snow
10:53 AM 27.0 °F - 19.9 °F 75% 30.43 in 3.0 mi Calm Calm - 0.00 in Snow Light Snow
11:12 AM 28.4 °F - 21.2 °F 74% 30.38 in 2.5 mi Calm Calm - 0.00 in Snow Light Snow
11:18 AM 28.4 °F 24.6 °F 21.2 °F 74% 30.38 in 1.8 mi NNE 3.5 mph - 0.00 in Snow Light Snow
11:34 AM 26.6 °F - 21.2 °F 80% 30.38 in 2.5 mi Calm Calm - 0.00 in Snow Light Snow
11:53 AM 28.0 °F 24.2 °F 21.9 °F 78% 30.41 in 3.0 mi ENE 3.5 mph - 0.00 in Snow Light Snow
12:08 PM 26.6 °F - 21.2 °F 80% 30.37 in 3.0 mi Calm Calm - 0.00 in Snow Light Snow
12:16 PM 26.6 °F - 21.2 °F 80% 30.37 in 2.5 mi Calm Calm - 0.00 in Snow Light Snow
12:35 PM 28.4 °F 24.6 °F 21.2 °F 74% 30.37 in 5.0 mi NE 3.5 mph - 0.00 in Snow Light Snow
12:53 PM 28.0 °F 24.2 °F 21.9 °F 78% 30.40 in 8.0 mi NE 3.5 mph - 0.00 in   Overcast
1:53 PM 28.0 °F 22.8 °F 21.9 °F 78% 30.39 in 10.0 mi NE 4.6 mph - 0.00 in   Overcast
2:48 PM 28.4 °F - 21.2 °F 74% 30.35 in 3.0 mi Calm Calm - 0.00 in Snow Light Snow
2:53 PM 28.0 °F 24.2 °F 21.9 °F 78% 30.39 in 4.0 mi Variable 3.5 mph - 0.00 in Snow Light Snow
2:59 PM 28.4 °F 24.6 °F 21.2 °F 74% 30.35 in 1.8 mi NNE 3.5 mph - 0.00 in Snow Light Snow
3:11 PM 26.6 °F 21.2 °F 21.2 °F 80% 30.35 in 0.5 mi NNE 4.6 mph - 0.01 in Snow Snow
3:24 PM 26.6 °F - 23.0 °F 86% 30.35 in 0.5 mi Calm Calm - 0.01 in Fog , Snow Snow
3:40 PM 26.6 °F 22.6 °F 23.0 °F 86% 30.35 in 0.8 mi NNE 3.5 mph - 0.02 in Snow Light Snow
3:53 PM 27.0 °F 23.0 °F 24.1 °F 89% 30.40 in 0.8 mi ENE 3.5 mph - 0.02 in Snow Light Snow
4:11 PM 26.6 °F 22.6 °F 23.0 °F 86% 30.35 in 1.5 mi NE 3.5 mph - 0.00 in Snow Light Snow
4:45 PM 26.6 °F - 23.0 °F 86% 30.34 in 2.5 mi Calm Calm - 0.01 in Snow Light Snow
4:53 PM 26.1 °F 21.9 °F 24.1 °F 92% 30.38 in 2.5 mi NE 3.5 mph - 0.01 in Snow Light Snow
5:00 PM 26.6 °F 22.6 °F 24.8 °F 93% 30.34 in 4.0 mi NNE 3.5 mph - 0.00 in Snow Light Snow
5:30 PM 26.6 °F - 23.0 °F 86% 30.34 in 6.0 mi Calm Calm - 0.00 in Snow Light Snow
5:51 PM 26.6 °F - 23.0 °F 86% 30.34 in 2.0 mi Calm Calm - 0.00 in Snow Light Snow
5:53 PM 26.1 °F - 23.0 °F 88% 30.39 in 2.0 mi Calm Calm - 0.00 in Snow Light Snow
6:10 PM 26.6 °F 22.6 °F 24.8 °F 93% 30.34 in 2.5 mi NNE 3.5 mph - 0.00 in Snow Light Snow
6:15 PM 26.6 °F - 23.0 °F 86% 30.35 in 2.5 mi Calm Calm - 0.00 in Snow Light Snow
6:32 PM 26.6 °F - 24.8 °F 93% 30.35 in 4.0 mi Calm Calm - 0.00 in Snow Light Snow
6:53 PM 27.0 °F - 24.1 °F 89% 30.39 in 4.0 mi Calm Calm - 0.00 in Snow Light Snow
7:53 PM 26.1 °F - 24.1 °F 92% 30.41 in 9.0 mi Calm Calm - 0.00 in   Overcast
8:53 PM 27.0 °F - 24.1 °F 89% 30.40 in 5.0 mi Calm Calm - N/A   Overcast
9:53 PM 27.0 °F - 25.0 °F 92% 30.40 in 5.0 mi Calm Calm - N/A   Overcast
10:53 PM 28.0 °F - 26.1 °F 92% 30.40 in 4.0 mi Calm Calm - N/A   Overcast
11:29 PM 26.6 °F - 26.6 °F 100% 30.35 in 2.0 mi Calm Calm - N/A   Overcast
11:34 PM 28.4 °F - 26.6 °F 93% 30.35 in 0.8 mi Calm Calm - N/A   Overcast
11:53 PM 28.0 °F - 26.1 °F 92% 30.38 in 0.2 mi Calm Calm - N/A Fog Light Freezing Fog